Location: Peebles
(55.6412°N, 3.1714°W)
Time: 18:41:50
(UTC+01:00)

ISS - Pass Details

Date: 04 October 2021
Orbit: 417 x 423 km, 51.6° (Epoch: 23 October)

Event Time Altitude Azimuth Distance (km) Brightness Sun altitude
Rises 20:05:31 0° 271° (W) 2,365 1.9 -12.9°
Reaches altitude 10° 20:09:02 10° 233° (SW) 1,498 -0.4 -13.4°
Maximum altitude 20:09:54 11° 218° (SW) 1,450 -0.7 -13.5°
Drops below altitude 10° 20:10:46 10° 202° (SSW) 1,496 -0.8 -13.6°
Enters shadow 20:13:24 - 170° (S) 2,079 -0.5 -14.0°
